[ hide orbit diagram ]
For accurate long-term ephemerides, please instead use our Horizons system.This orbit viewer was implemented using two-body methods, and hence should not be used for determining accurate long-term trajectories (over several years or decades) or planetary encounter circumstances.
Orbital Elements at Epoch 2459200.5 (2020-Dec-17.0) TDB
Reference: JPL 15 (heliocentric ecliptic J2000)
Element | Value | Uncertainty (1-sigma) | Units |
e | .1572571085755223 | 6.3673e-08 | |
a | 2.643596720759017 | 2.1579e-08 | au |
q | 2.227872344212722 | 1.6614e-07 | au |
i | 5.678144889126373 | 7.34e-06 | deg |
node | 185.4190151898181 | 5.1447e-05 | deg |
peri | 217.2269519042457 | 6.22e-05 | deg |
M | 142.2897809737636 | 3.007e-05 | deg |
tp | 2458579.970484309704 (2019-Apr-06.47048431) | 0.00012758 | TDB |
period | 1569.969565767318 4.30 | 1.9223e-05 5.263e-08 | d yr |
n | .2293038080799044 | 2.8076e-09 | deg/d |
Q | 3.059321097305312 | 2.4972e-08 | au |
|
| | Orbit Determination Parameters
Additional Information
|
[ show covariance matrix ]
Physical Parameter Table
Parameter |
Symbol |
Value |
Units |
Sigma |
Reference |
Notes |
absolute magnitude |
H |
17.66 |
|
n/a |
E2021B25 |
|
|
413076 (2001 SF312) Discovered 2001-Sep-20 by LINEAR at Socorro |
Reference: | Last Updated: 2014-11-10 |
|
|